User: anonymous   Login
Location: Unspecified
(0.0000°N, 0.0000°E)
Time: 09:43:15
(UTC+00:00)
Language:

TRITON 1 - Orbit

View from above orbital plane
View from above orbital plane
View from above satellite
View from above satellite

Ground track
Ground track

The orbit data is extracted from the following two-line orbital elements,

1 39428U 13066N   18015.05120589  .00000497  00000-0  87310-4 0  9990
2 39428  97.6463  18.8632 0122284  39.9008 321.1108 14.66988815221916
Epoch (UTC): 15 January 2018 01:13:44
Eccentricity: 0.0122284
inclination: 97.6463°
perigee height: 584 km
apogee height: 757 km
right ascension of ascending node: 18.8632°
argument of perigee: 39.9008°
revolutions per day: 14.66988815
mean anomaly at epoch: 321.1108°
orbit number at epoch: 22191

The dashed part of the orbit path shows where the satellite is in the earth's shadow,  

DLR